DW5595 Weather Reports


time (UTC)temp
C
wind
direction
speed
KPH
gust
KPH
rain 1hr
cm
rain 24hr
cm
rain mn
cm
humidity
%
barometer
mb
20200803151325 23 349 1.6 8.0 0.00 1.98 1.78 87 1019.8
20200803150343 23 38 1.6 6.4 0.00 1.98 1.78 87 1019.8
20200803135448 23 324 0.0 0.0 0.00 1.98 1.78 93 1020.3
20200803134455 22 324 0.0 3.2 0.00 1.98 1.78 93 1020.2
20200803133439 22 321 0.0 0.0 0.00 1.98 1.78 94 1020.3
20200803132442 22 321 0.0 1.6 0.00 1.98 1.78 94 1020.1
20200803131445 22 321 0.0 1.6 0.00 1.98 1.78 94 1020.1
20200803130453 22 321 0.0 0.0 0.00 1.98 1.78 94 1020.1
20200803125455 22 321 0.0 4.8 0.00 1.98 1.78 93 1019.9
20200803124437 22 317 0.0 4.8 0.00 1.98 1.78 93 1019.7
20200803123439 21 313 0.0 0.0 0.00 1.98 1.78 93 1019.4
20200803122447 21 313 0.0 4.8 0.00 1.98 1.78 93 1019.2
20200803121449 21 313 1.6 4.8 0.00 1.98 1.78 93 1019.2
20200803120450 20 313 0.0 1.6 0.00 1.98 1.78 93 1019.2
20200803115453 20 313 0.0 0.0 0.00 1.98 1.78 93 1019.2
20200803114440 20 313 0.0 0.0 0.00 1.98 1.78 94 1019.4
20200803113444 20 313 0.0 0.0 0.00 1.98 1.78 94 1019.3
20200803111448 20 313 0.0 0.0 0.00 1.98 1.78 94 1019.1
20200803110453 20 313 0.0 1.6 0.00 1.98 1.78 94 1018.9
20200803105439 20 313 0.0 0.0 0.00 1.98 1.78 94 1018.9
20200803104442 20 313 0.0 0.0 0.00 1.98 1.78 94 1018.9
20200803103446 20 313 0.0 0.0 0.00 1.98 1.78 94 1018.8
20200803102449 20 313 0.0 0.0 0.00 1.98 1.78 95 1018.9
20200803101457 20 313 0.0 0.0 0.00 1.98 1.78 95 1018.9
20200803100440 20 313 0.0 0.0 0.00 1.98 1.78 94 1018.9
20200803095444 20 313 0.0 3.2 0.00 1.98 1.78 94 1018.9
20200803094447 20 313 1.6 3.2 0.00 1.98 1.78 94 1019.1
20200803093455 20 313 0.0 0.0 0.03 1.98 1.78 95 1019.0
20200803092438 20 313 0.0 0.0 0.05 1.98 1.78 95 1019.0
20200803091458 20 313 0.0 3.2 0.13 1.98 1.78 94 1019.0
20200803083456 21 250 0.0 0.0 0.79 1.96 1.75 94 1018.9
20200803082458 21 250 0.0 4.8 0.86 1.93 1.73 94 1019.0
20200803081441 21 151 0.0 4.8 0.99 1.88 1.68 94 1019.0
20200803080443 21 32 0.0 3.2 0.89 1.78 1.57 94 1019.1
20200803044457 22 169 0.0 0.0 0.00 0.20 0.00 94 1018.0
20200803035444 22 169 0.0 0.0 0.00 0.20 0.20 94 1017.7
20200803034447 22 169 0.0 4.8 0.00 0.20 0.20 94 1017.9
20200803033451 22 169 1.6 11.3 0.00 0.20 0.20 94 1017.9
20200803032454 22 210 0.0 0.0 0.00 0.20 0.20 94 1017.6
20200803031438 22 210 0.0 0.0 0.00 0.20 0.20 94 1017.6
20200803030441 22 210 0.0 0.0 0.00 0.20 0.20 94 1017.8
20200803025442 22 210 0.0 0.0 0.00 0.20 0.20 94 1017.9
20200803024446 22 210 0.0 0.0 0.00 0.20 0.20 94 1017.9
20200803023453 22 210 0.0 0.0 0.00 0.20 0.20 94 1017.9
20200803022456 22 210 0.0 0.0 0.00 0.20 0.20 94 1017.6
20200803021440 22 210 0.0 0.0 0.00 0.20 0.20 94 1017.5
20200803020443 22 210 0.0 0.0 0.00 0.20 0.20 94 1017.5
20200803015450 23 210 0.0 0.0 0.00 0.20 0.20 94 1017.5
20200803014451 23 210 0.0 0.0 0.00 0.20 0.20 94 1017.2
20200803013454 23 210 0.0 0.0 0.00 0.20 0.20 94 1017.1
20200803012456 23 210 0.0 0.0 0.00 0.20 0.20 94 1016.8
20200803011442 23 210 0.0 0.0 0.00 0.20 0.20 94 1016.9
20200803010445 23 210 0.0 0.0 0.00 0.20 0.20 93 1016.9
20200803005447 23 210 0.0 0.0 0.00 0.20 0.20 93 1016.8
20200803004449 23 210 0.0 0.0 0.00 0.20 0.20 93 1016.7
20200803003455 24 210 0.0 0.0 0.00 0.20 0.20 92 1016.7
20200803002438 24 210 0.0 0.0 0.00 0.20 0.20 91 1016.6
20200803001441 24 210 0.0 0.0 0.00 0.20 0.20 90 1016.5
20200803000444 25 210 0.0 0.0 0.00 0.20 0.20 90 1016.5
20200802235451 25 210 0.0 0.0 0.00 0.20 0.20 90 1016.5
20200802234454 25 210 0.0 0.0 0.00 0.20 0.20 89 1016.5
20200802233455 25 210 0.0 0.0 0.00 0.20 0.20 89 1016.4
20200802232439 25 210 0.0 0.0 0.00 0.20 0.20 89 1016.3
20200802231445 25 210 0.0 1.6 0.00 0.20 0.20 89 1016.4
20200802230448 26 210 0.0 0.0 0.00 0.20 0.20 88 1016.6
20200802225450 26 210 0.0 0.0 0.00 0.20 0.20 89 1016.4
20200802224452 26 210 0.0 3.2 0.00 0.20 0.20 88 1016.3
20200802223439 26 210 0.0 0.0 0.00 0.20 0.20 88 1016.2
20200802222440 26 210 0.0 0.0 0.00 0.20 0.20 88 1016.1
20200802221443 26 212 0.0 0.0 0.00 0.20 0.20 85 1016.4
20200802220448 26 212 0.0 0.0 0.00 0.20 0.20 88 1016.3
20200802215446 26 212 0.0 0.0 0.00 0.20 0.20 84 1016.4
20200802214453 25 212 0.0 1.6 0.03 0.20 0.20 85 1016.4
20200802213454 25 212 0.0 0.0 0.03 0.20 0.20 86 1016.5
20200802212438 25 212 0.0 1.6 0.03 0.20 0.20 86 1016.4
20200802211439 25 212 0.0 6.4 0.03 0.20 0.20 88 1016.4
20200802210445 25 256 3.2 9.7 0.03 0.20 0.20 87 1016.7
20200802205448 25 234 0.0 14.5 0.03 0.20 0.20 88 1016.7
20200802204450 26 222 3.2 14.5 0.05 0.18 0.18 88 1017.0
20200802203451 26 350 0.0 0.0 0.05 0.18 0.18 90 1016.6
20200802202437 27 350 0.0 0.0 0.18 0.18 0.18 88 1016.5
20200802201439 27 350 0.0 0.0 0.18 0.18 0.18 90 1016.3
20200802200442 26 350 0.0 4.8 0.18 0.18 0.18 90 1016.2
20200802195444 25 342 1.6 6.4 0.18 0.18 0.18 90 1016.3
20200802194447 25 338 0.0 0.0 0.13 0.13 0.13 88 1016.5
20200802193446 25 338 0.0 16.1 0.13 0.13 0.13 79 1016.3
20200802192448 26 355 0.0 12.9 0.08 0.08 0.08 78 1017.1
20200802191450 30 301 1.6 8.0 0.00 0.00 0.00 62 1016.9
20200802190456 31 229 1.6 12.9 0.00 0.00 0.00 58 1016.4
20200802185438 31 223 3.2 14.5 0.00 0.00 0.00 60 1016.4
20200802184439 31 213 1.6 11.3 0.00 0.00 0.00 61 1016.5
20200802183442 31 169 1.6 17.7 0.00 0.00 0.00 63 1016.7
20200802182449 31 183 1.6 16.1 0.00 0.00 0.00 61 1016.7
20200802181450 31 227 1.6 12.9 0.00 0.00 0.00 60 1016.9
20200802180454 31 196 3.2 17.7 0.00 0.00 0.00 59 1016.7
20200802175456 31 155 1.6 20.9 0.00 0.00 0.00 61 1016.7
20200802174442 31 201 1.6 8.0 0.00 0.00 0.00 63 1016.9
20200802173444 31 191 1.6 9.7 0.00 0.00 0.00 60 1017.0
20200802172448 31 172 1.6 9.7 0.00 0.00 0.00 61 1017.1
20200802171452 31 151 1.6 4.8 0.00 0.00 0.00 62 1017.1
20200802170440 31 178 3.2 16.1 0.00 0.00 0.00 62 1017.2
20200802165444 30 286 0.0 6.4 0.00 0.00 0.00 64 1017.3
20200802164448 30 236 1.6 4.8 0.00 0.00 0.00 66 1017.4
20200802163451 30 225 0.0 4.8 0.00 0.00 0.00 66 1017.4
20200802162438 30 228 0.0 4.8 0.00 0.00 0.00 66 1017.3
20200802161442 30 246 0.0 8.0 0.00 0.00 0.00 66 1017.3
20200802160445 30 219 1.6 11.3 0.00 0.00 0.00 68 1017.3
20200802155448 30 232 3.2 6.4 0.00 0.00 0.00 67 1017.4
20200802154452 29 194 1.6 6.4 0.00 0.00 0.00 68 1017.3
20200802153440 29 219 1.6 9.7 0.00 0.00 0.00 68 1017.5
20200802152442 29 259 1.6 11.3 0.00 0.00 0.00 70 1017.5